• Join FlightAware (Why Join?)
  • Login
  • US Flag 
08:55AM EDT


 

Airport Tracker/Info


-or-


 

Live Flight TrackerFlight Track Log ✈ EJA941 ✈ 15-Jan-2014 ✈ KBNA - KAVP

Flight Track Log - Related Links

Times and Time Zones

All times are in EST time to prevent confusion due to time zone crossing. See the EJA941 flight status page for this flight to view local times or setup timezone preferences in your user account.

Time Position Orientation Groundspeed Altitude Reporting Facility
EST Latitude Longitude Course Direction KTS MPH feet Rate Location/Type
03:08PM 36.1333 -86.6500 50° Northeast 177 204 1,200  Level Nashville TRACON
03:09PM 36.1667 -86.6000 50° Northeast 235 270 4,000 2,460 Climbing Nashville TRACON
03:10PM 36.1833 -86.5167 76° East 276 318 6,200 2,640 Climbing Nashville TRACON
03:11PM 36.1833 -86.4194 90° East 275 316 9,500 2,520 Climbing Memphis Center
03:12PM 36.1903 -86.3075 86° East 325 374 11,500 2,220 Climbing Memphis Center
03:13PM 36.2264 -86.1867 70° East 364 419 14,100 2,400 Climbing Memphis Center
03:14PM 36.2681 -86.0631 67° East 381 438 16,500 1,980 Climbing Memphis Center
03:15PM 36.3117 -85.9328 67° East 397 457 18,300 1,980 Climbing Memphis Center
03:16PM 36.3639 -85.7739 68° East 422 486 20,600 2,220 Climbing Indianapolis Center
03:17PM 36.4111 -85.6283 68° East 443 510 22,900 2,220 Climbing Indianapolis Center
03:18PM 36.4633 -85.4747 67° East 468 539 25,200 2,040 Climbing Indianapolis Center
03:20PM 36.5631 -85.1489 69° East 505 581 29,300 1,680 Climbing Indianapolis Center
03:22PM 36.6289 -84.7919 77° East 531 611 32,200 1,320 Climbing Indianapolis Center
03:23PM 36.6728 -84.5714 76° East 544 626 33,500 1,200 Climbing Indianapolis Center
03:24PM 36.7083 -84.3939 76° East 549 632 34,800 720 Climbing Indianapolis Center
03:25PM 36.7517 -84.2061 74° East 562 647 35,000 60 Climbing Indianapolis Center
03:26PM 36.8181 -84.0206 66° East 583 671 35,000  Level Indianapolis Center
03:27PM 36.8942 -83.8014 66° East 594 684 35,000  Level Indianapolis Center
03:28PM 36.9606 -83.6133 66° East 588 677 35,000  Level Indianapolis Center
03:29PM 37.0256 -83.4228 67° East 593 682 35,000  Level Indianapolis Center
03:30PM 37.0944 -83.2356 65° Northeast 591 680 35,000  Level Indianapolis Center
03:31PM 37.1931 -83.0647 54° Northeast 602 693 35,000  Level Indianapolis Center
03:32PM 37.2967 -82.8961 52° Northeast 612 704 35,000  Level Indianapolis Center
03:33PM 37.3997 -82.7267 53° Northeast 607 699 35,000  Level Indianapolis Center
03:34PM 37.5003 -82.5586 53° Northeast 602 693 35,000  Level Indianapolis Center
03:36PM 37.6167 -82.3619 53° Northeast 601 692 35,000  Level Indianapolis Center
03:37PM 37.7172 -82.1925 53° Northeast 601 692 35,000  Level Indianapolis Center
03:38PM 37.8175 -82.0244 53° Northeast 599 689 35,000  Level Indianapolis Center
03:39PM 37.9169 -81.8586 53° Northeast 604 695 35,000  Level Indianapolis Center
03:40PM 38.0150 -81.6861 54° Northeast 605 696 35,000  Level Indianapolis Center
03:41PM 38.1144 -81.5139 54° Northeast 607 699 35,000  Level Indianapolis Center
03:42PM 38.2339 -81.3069 54° Northeast 611 703 35,000 -240 Level Indianapolis Center
03:43PM 38.3325 -81.1347 54° Northeast 608 700 34,600 -720 Descending Indianapolis Center
03:44PM 38.4303 -80.9625 54° Northeast 607 699 33,600 -780 Descending Indianapolis Center
03:45PM 38.5272 -80.7897 54° Northeast 604 695 33,000 -300 Descending Indianapolis Center
03:46PM 38.6264 -80.6128 54° Northeast 611 703 33,000  Level Indianapolis Center
03:47PM 38.7481 -80.3956 54° Northeast 624 718 33,000 -240 Level Indianapolis Center
03:48PM 38.8511 -80.2125 54° Northeast 632 727 32,600 -1,020 Descending Indianapolis Center
03:49PM 38.9361 -80.0189 61° Northeast 616 709 31,000 -1,500 Descending Indianapolis Center
03:50PM 38.9928 -79.8219 70° East 606 697 29,600 -1,020 Descending Indianapolis Center
03:51PM 39.0636 -79.6306 64° Northeast 607 699 29,000 -300 Descending Indianapolis Center
03:52PM 39.1500 -79.4317 61° Northeast 614 707 29,000 -300 Level Indianapolis Center
03:53PM 39.2439 -79.2131 61° Northeast 622 716 28,400 -960 Descending Indianapolis Center
03:54PM 39.3361 -79.0050 60° Northeast 604 695 27,000 -1,140 Descending Washington Center
03:55PM 39.4122 -78.8178 62° Northeast 591 680 26,000 -540 Descending Washington Center
03:56PM 39.4919 -78.6331 61° Northeast 586 674 26,000  Level Washington Center
03:57PM 39.5694 -78.4453 62° Northeast 586 674 26,000 -960 Level Washington Center
03:58PM 39.6489 -78.2569 61° Northeast 586 674 24,100 -2,520 Descending Washington Center
03:59PM 39.6917 -78.1547 61° Northeast 584 672 22,300 -2,460 Descending Cleveland Center
04:00PM 39.8008 -77.8861 62° Northeast 533 613 19,000 -1,320 Descending New York Center
04:01PM 39.8667 -77.7278 62° Northeast 508 585 19,000 -240 Level New York Center
04:02PM 39.9319 -77.5717 61° Northeast 490 564 18,600 -720 Descending New York Center
04:03PM 40.0125 -77.4386 52° Northeast 507 583 17,600 -840 Descending New York Center
04:04PM 40.1225 -77.2997 44° Northeast 500 575 17,000 -300 Descending New York Center
04:05PM 40.2119 -77.1886 43° Northeast 495 570 17,000  Level New York Center
04:06PM 40.3194 -77.0542 44° Northeast 489 563 17,000  Level New York Center
04:07PM 40.4089 -76.9397 44° Northeast 489 563 17,000 -60 Level New York Center
04:08PM 40.5181 -76.7992 44° Northeast 489 563 16,900 -840 Descending New York Center
04:09PM 40.6161 -76.6739 44° Northeast 489 563 15,400 -1,500 Descending New York Center
04:10PM 40.7056 -76.5528 46° Northeast 476 548 14,000 -1,500 Descending New York Center
04:11PM 40.7808 -76.4606 43° Northeast 433 498 12,500 -1,500 Descending New York Center
04:12PM 40.8542 -76.3650 45° Northeast 388 447 11,100 -1,440 Descending New York Center
04:13PM 40.9297 -76.2669 44° Northeast 345 397 9,700 -1,380 Descending New York Center
04:14PM 40.9978 -76.1900 40° Northeast 328 377 8,400 -1,320 Descending New York Center
04:15PM 41.0667 -76.1431 27° Northeast 308 354 7,100 -1,320 Descending New York Center
04:16PM 41.1397 -76.0939 27° Northeast 297 342 5,800 -1,320 Descending New York Center
04:17PM 41.2153 -76.0336 31° Northeast 286 329 4,500 -900 Descending New York Center
04:18PM 41.2719 -75.9744 38° Northeast 270 311 4,100 -300 Descending New York Center
04:19PM 41.3225 -75.9175 40° Northeast 264 304 4,000 -60 Descending New York Center
04:20PM 41.3792 -75.8556 39° Northeast 259 298 4,000  Level New York Center
04:21PM 41.4425 -75.7883 38° Northeast 266 306 4,000  Level New York Center
04:22PM 41.4969 -75.7289 39° Northeast 260 299 4,000 -240 Level New York Center
04:23PM 41.4878 -75.6533 99° East 192 221 3,600 -600 Descending New York Center
04:24PM 41.4275 -75.6489 177° South 131 151 2,900 -780 Descending New York Center
04:25PM 41.3867 -75.6792 209° Southwest 131 151 2,100 -840 Descending New York Center